GW4413 Weather Reports


Display with metric or nautical units.
time (UTC)temp
F
wind
direction
speed
MPH
gust
MPH
rain 1hr
in
rain 24hr
in
rain mn
in
humidity
%
barometer
mb
20260503220026 73 151 0.0 2.0 0.00 0.00 0.00 39 1013.1
20260503215507 73 330 0.0 2.0 0.00 0.00 0.00 39 1013.1
20260503215003 73 330 0.0 2.0 0.00 0.00 0.00 39 1013.2
20260503214526 73 331 0.0 2.0 0.00 0.00 0.00 39 1013.2
20260503214003 73 331 0.0 3.0 0.00 0.00 0.00 40 1013.3
20260503213503 73 330 0.0 3.0 0.00 0.00 0.00 40 1013.4
20260503213022 73 303 0.0 3.0 0.00 0.00 0.00 38 1013.4
20260503212506 73 360 1.0 3.0 0.00 0.00 0.00 38 1013.3
20260503212002 73 323 0.0 3.0 0.00 0.00 0.00 38 1013.4
20260503211522 73 313 0.0 2.0 0.00 0.00 0.00 37 1013.5
20260503211003 73 300 0.0 2.0 0.00 0.00 0.00 37 1013.5
20260503210507 73 348 0.0 2.0 0.00 0.00 0.00 38 1013.6
20260503210023 73 310 0.0 3.0 0.00 0.00 0.00 38 1013.6
20260503205503 73 351 1.0 3.0 0.00 0.00 0.00 39 1013.6
20260503205002 72 305 0.0 2.0 0.00 0.00 0.00 40 1013.7
20260503204522 72 325 0.0 2.0 0.00 0.00 0.00 40 1013.7
20260503204006 72 293 0.0 2.0 0.00 0.00 0.00 42 1013.7
20260503203504 72 330 0.0 2.0 0.00 0.00 0.00 41 1013.7
20260503203024 72 330 0.0 3.0 0.00 0.00 0.00 41 1013.7
20260503202503 72 330 0.0 3.0 0.00 0.00 0.00 40 1013.7
20260503202004 72 350 1.0 2.0 0.00 0.00 0.00 41 1013.8
20260503201524 71 350 0.0 2.0 0.00 0.00 0.00 44 1013.8
20260503201003 71 350 0.0 2.0 0.00 0.00 0.00 43 1013.8
20260503200503 71 325 0.0 2.0 0.00 0.00 0.00 41 1013.9
20260503200024 71 325 0.0 2.0 0.00 0.00 0.00 42 1014.0
20260503195508 71 325 0.0 2.0 0.00 0.00 0.00 44 1014.0
20260503195003 71 325 0.0 2.0 0.00 0.00 0.00 43 1014.1
20260503194524 71 325 0.0 3.0 0.00 0.00 0.00 42 1014.2
20260503194003 71 5 0.0 3.0 0.00 0.00 0.00 43 1014.1
20260503193503 70 142 0.0 2.0 0.00 0.00 0.00 43 1014.2
20260503193023 70 167 0.0 2.0 0.00 0.00 0.00 41 1014.3
20260503192503 70 88 0.0 3.0 0.00 0.00 0.00 42 1014.4
20260503192010 70 299 0.0 3.0 0.00 0.00 0.00 43 1014.5
20260503191534 70 352 0.0 2.0 0.00 0.00 0.00 44 1014.5
20260503191004 69 343 0.0 2.0 0.00 0.00 0.00 46 1014.5
20260503190508 69 343 0.0 2.0 0.00 0.00 0.00 45 1014.6
20260503190021 69 270 0.0 2.0 0.00 0.00 0.00 45 1014.6
20260503185503 69 352 1.0 2.0 0.00 0.00 0.00 45 1014.7
20260503185014 68 5 0.0 2.0 0.00 0.00 0.00 47 1014.7
20260503184522 68 5 0.0 3.0 0.00 0.00 0.00 47 1014.7
20260503184007 68 329 1.0 3.0 0.00 0.00 0.00 48 1014.8
20260503183508 68 255 0.0 2.0 0.00 0.00 0.00 47 1014.8
20260503183021 67 270 0.0 2.0 0.00 0.00 0.00 49 1014.9
20260503182505 67 309 0.0 2.0 0.00 0.00 0.00 50 1014.9
20260503182011 67 302 0.0 2.0 0.00 0.00 0.00 54 1014.9
20260503181522 66 302 0.0 2.0 0.00 0.00 0.00 53 1015.0
20260503181005 66 302 0.0 2.0 0.00 0.00 0.00 53 1015.0
20260503180514 66 302 0.0 2.0 0.00 0.00 0.00 54 1015.0
20260503180032 65 279 0.0 2.0 0.00 0.00 0.00 54 1015.0
20260503175504 65 290 0.0 2.0 0.00 0.00 0.00 54 1015.1
20260503175008 64 350 0.0 2.0 0.00 0.00 0.00 57 1015.1
20260503174523 64 350 0.0 2.0 0.00 0.00 0.00 58 1015.2
20260503174008 64 350 0.0 2.0 0.00 0.00 0.00 61 1015.2
20260503173021 64 350 0.0 3.0 0.00 0.00 0.00 59 1015.3
20260503172506 64 310 0.0 3.0 0.00 0.00 0.00 59 1015.3
20260503172010 64 309 0.0 3.0 0.00 0.00 0.00 59 1015.3
20260503171525 64 310 0.0 3.0 0.00 0.00 0.00 59 1015.3
20260503171003 64 352 0.0 2.0 0.00 0.00 0.00 59 1015.3
20260503170511 64 352 0.0 3.0 0.00 0.00 0.00 59 1015.3
20260503151004 60 298 0.0 2.0 0.00 0.00 0.00 66 1015.5
20260503150503 60 298 0.0 2.0 0.00 0.00 0.00 66 1015.6
20260503131005 61 298 0.0 0.0 0.00 0.00 0.00 61 1015.2
20260503130510 61 298 0.0 0.0 0.00 0.00 0.00 60 1015.2
20260503110511 63 298 0.0 2.0 0.00 0.00 0.00 51 1015.4
20260503090504 61 298 0.0 1.0 0.00 0.00 0.00 60 1015.3
20260503081517 62 298 0.0 0.0 0.00 0.00 0.00 59 1015.3
20260503080504 63 298 0.0 0.0 0.00 0.00 0.00 54 1015.3
20260503072505 63 298 0.0 1.0 0.00 0.00 0.00 51 1015.2
20260503071514 62 298 0.0 0.0 0.00 0.00 0.00 53 1015.3
20260503071005 62 298 0.0 1.0 0.00 0.00 0.00 55 1015.2
20260503070503 62 298 0.0 1.0 0.00 0.00 0.00 54 1015.2
20260503055003 65 298 0.0 1.0 0.00 0.00 0.00 47 1015.2
20260503054520 65 298 0.0 1.0 0.00 0.00 0.00 47 1015.2
20260503054006 64 298 0.0 1.0 0.00 0.00 0.00 49 1015.2
20260503053504 64 298 0.0 1.0 0.00 0.00 0.00 50 1015.2
20260503052508 64 298 0.0 1.0 0.00 0.00 0.00 50 1015.3
20260503052003 64 298 0.0 1.0 0.00 0.00 0.00 50 1015.2
20260503051522 64 298 0.0 1.0 0.00 0.00 0.00 52 1015.2
20260503051008 64 298 0.0 1.0 0.00 0.00 0.00 53 1015.2
20260503050508 64 298 0.0 1.0 0.00 0.00 0.00 52 1015.2
20260503050022 64 298 0.0 1.0 0.00 0.00 0.00 53 1015.2
20260503045507 64 298 0.0 1.0 0.00 0.00 0.00 52 1015.1
20260503045008 64 298 0.0 1.0 0.00 0.00 0.00 52 1015.1
20260503044518 64 298 0.0 1.0 0.00 0.00 0.00 51 1015.0
20260503043506 64 298 0.0 1.0 0.00 0.00 0.00 52 1014.9
20260503043035 64 298 0.0 1.0 0.00 0.00 0.00 53 1014.9
20260503042506 64 298 0.0 1.0 0.00 0.00 0.00 51 1014.7
20260503041525 64 298 0.0 2.0 0.00 0.00 0.00 51 1014.8
20260503041007 64 298 0.0 2.0 0.00 0.00 0.00 52 1014.8
20260503040507 64 298 0.0 1.0 0.00 0.00 0.00 52 1014.7
20260503040022 64 298 0.0 1.0 0.00 0.00 0.00 52 1014.7
20260503035507 64 298 0.0 1.0 0.00 0.00 0.00 53 1014.6
20260503035008 64 298 0.0 1.0 0.00 0.00 0.00 52 1014.6
20260503034523 64 298 0.0 1.0 0.00 0.00 0.00 53 1014.6
20260503034006 65 298 0.0 1.0 0.00 0.00 0.00 53 1014.5
20260503033512 65 298 0.0 1.0 0.00 0.00 0.00 52 1014.5
20260503033031 65 298 0.0 0.0 0.00 0.00 0.00 53 1014.4
20260503032009 65 298 0.0 1.0 0.00 0.00 0.00 52 1014.3
20260503031007 66 298 0.0 1.0 0.00 0.00 0.00 52 1014.3
20260503025507 66 298 0.0 1.0 0.00 0.00 0.00 51 1014.3
20260503024008 66 298 0.0 1.0 0.00 0.00 0.00 51 1014.2
20260503023510 67 298 0.0 1.0 0.00 0.00 0.00 51 1014.2
20260503023024 67 298 0.0 1.0 0.00 0.00 0.00 52 1014.2
20260503022007 67 298 0.0 2.0 0.00 0.00 0.00 51 1014.2
20260503021539 67 298 0.0 2.0 0.00 0.00 0.00 51 1014.2
20260503021007 67 298 0.0 1.0 0.00 0.00 0.00 51 1014.3
20260503020511 68 298 0.0 1.0 0.00 0.00 0.00 51 1014.3
20260503020024 68 298 0.0 1.0 0.00 0.00 0.00 51 1014.3
20260503015513 68 298 0.0 1.0 0.00 0.00 0.00 51 1014.4
20260503014006 68 298 0.0 1.0 0.00 0.00 0.00 49 1014.5
20260503013508 68 298 0.0 2.0 0.00 0.00 0.00 49 1014.6
20260503013026 68 298 0.0 2.0 0.00 0.00 0.00 48 1014.6
20260503012507 69 298 0.0 2.0 0.00 0.00 0.00 49 1014.7
20260503012015 69 298 0.0 2.0 0.00 0.00 0.00 47 1014.8
20260503011522 69 298 0.0 2.0 0.00 0.00 0.00 46 1014.9
20260503010504 69 288 0.0 2.0 0.00 0.00 0.00 46 1014.8
20260503010021 69 349 0.0 2.0 0.00 0.00 0.00 46 1014.8
20260503005507 69 349 0.0 2.0 0.00 0.00 0.00 45 1014.8
20260503005003 70 74 0.0 2.0 0.00 0.00 0.00 44 1014.8
20260503004006 70 321 0.0 3.0 0.00 0.00 0.00 44 1014.8
20260503003503 70 299 0.0 2.0 0.00 0.00 0.00 45 1014.7
20260503002507 70 287 0.0 1.0 0.00 0.00 0.00 44 1014.7
20260503002011 70 287 0.0 2.0 0.00 0.00 0.00 43 1014.7
20260503001526 70 282 0.0 2.0 0.00 0.00 0.00 43 1014.8
20260503001007 70 282 0.0 2.0 0.00 0.00 0.00 44 1014.9
20260503000509 70 282 0.0 2.0 0.00 0.00 0.00 44 1014.9
20260503000024 70 236 0.0 2.0 0.00 0.00 0.00 43 1014.9
20260502235510 70 319 0.0 2.0 0.00 0.00 0.00 42 1015.0
20260502235010 70 324 0.0 2.0 0.00 0.00 0.00 43 1015.0
20260502234007 70 332 0.0 2.0 0.00 0.00 0.00 44 1015.1
20260502232507 70 294 0.0 2.0 0.00 0.00 0.00 43 1015.2
20260502232012 70 257 0.0 2.0 0.00 0.00 0.00 45 1015.3
20260502231524 69 34 0.0 3.0 0.00 0.00 0.00 46 1015.4
20260502231007 69 34 0.0 3.0 0.00 0.00 0.00 45 1015.4
20260502230510 69 17 0.0 2.0 0.00 0.00 0.00 48 1015.5
20260502230025 69 323 0.0 2.0 0.00 0.00 0.00 47 1015.5
20260502225007 69 277 0.0 2.0 0.00 0.00 0.00 47 1015.8
20260502224532 69 115 0.0 2.0 0.00 0.00 0.00 49 1015.8
20260502224010 68 338 0.0 2.0 0.00 0.00 0.00 51 1015.9
20260502223510 68 316 0.0 2.0 0.00 0.00 0.00 51 1016.0
20260502223024 68 256 0.0 2.0 0.00 0.00 0.00 51 1016.1
20260502222510 68 320 0.0 3.0 0.00 0.00 0.00 52 1016.2
20260502222011 68 360 0.0 3.0 0.00 0.00 0.00 53 1016.3
20260502221528 68 245 0.0 3.0 0.00 0.00 0.00 53 1016.4
20260502221007 68 227 0.0 3.0 0.00 0.00 0.00 53 1016.4
20260502220504 68 284 0.0 3.0 0.00 0.00 0.00 53 1016.4